Location: Unspecified
(0.0000°N, 0.0000°E)
Time: 17:02:33
(UTC+00:00)

OTV 5 (USA 277) - Pass Details

Date: 09 October 2017
Orbit: 404 x 417 km, 43.0° (Epoch: 07 September)

Event Time Altitude Azimuth Distance (km) Brightness Sun altitude
Exits shadow 05:05:29 10° 238° (WSW) 1,473 ? -10.4°
Reaches altitude 10° 05:05:47 10° 233° (SW) 1,451 ? -10.3°
Maximum altitude 05:06:16 10° 224° (SW) 1,437 ? -10.2°
Drops below altitude 10° 05:06:45 10° 216° (SW) 1,451 ? -10.1°
Sets 05:10:36 0° 170° (S) 2,312 ? -9.1°
